Location: Hartford
(41.7640°N, 72.6860°W)
Time: 11:16:02
(UTC-04:00)

ISS - All Passes

Search period start: 29 September 2016 00:00
Search period end: 09 October 2016 00:00
Orbit: 400 x 410 km, 51.6° (Epoch: 29 September)

Date Brightness Start Highest point End Pass type
(mag) Time Alt. Az. Time Alt. Az. Time Alt. Az.
29 Sep - 01:34:23 10° NW 01:37:23 32° NNE 01:40:24 10° E night (unlit)
29 Sep - 03:10:50 10° WNW 03:13:54 35° SW 03:16:56 10° SSE night (unlit)
29 Sep - 19:50:32 10° SW 19:53:43 57° SE 19:56:56 10° ENE visible
29 Sep - 21:27:39 10° W 21:30:24 25° NNW 21:33:11 10° NE visible
29 Sep - 23:05:49 10° NW 23:07:45 15° N 23:09:40 10° NE night (unlit)
30 Sep - 00:42:24 10° NW 00:45:06 23° NNE 00:47:48 10° ENE night (unlit)
30 Sep - 02:18:35 10° WNW 02:21:51 70° SW 02:25:07 10° SE night (unlit)
30 Sep - 18:58:50 10° SSW 19:01:42 29° SE 19:04:35 10° ENE visible
30 Sep - 20:35:06 10° W 20:38:08 36° NNW 20:41:12 10° NE visible
30 Sep - 22:13:17 10° NW 22:15:19 15° N 22:17:23 10° NNE night (unlit)
30 Sep - 23:50:23 10° NNW 23:52:45 18° NNE 23:55:07 10° ENE night (unlit)
01 Oct - 01:26:28 10° NW 01:29:44 63° NNE 01:32:59 10° ESE night (unlit)
01 Oct - 03:03:52 10° W 03:05:53 15° SW 03:07:53 10° S night (unlit)
01 Oct - 18:07:41 10° S 18:09:45 16° SE 18:11:50 10° E daylight
01 Oct - 19:42:42 10° WSW 19:45:55 60° NNW 19:49:09 10° NE visible
01 Oct - 21:20:36 10° WNW 21:22:55 18° NNW 21:25:14 10° NNE visible
01 Oct - 22:58:16 10° NNW 23:00:21 16° N 23:02:25 10° NE night (unlit)
02 Oct - 00:34:26 10° NW 00:37:31 37° NNE 00:40:37 10° E night (unlit)
02 Oct - 02:11:03 10° WNW 02:13:56 28° SW 02:16:47 10° SSE night (unlit)
02 Oct - 18:50:32 10° SW 18:53:46 74° SE 18:57:01 10° ENE visible
02 Oct - 20:27:54 10° WNW 20:30:32 22° NNW 20:33:11 10° NE visible
02 Oct - 22:05:59 10° NW 22:07:54 15° N 22:09:50 10° NE visible
02 Oct - 23:42:25 10° NW 23:45:13 26° NNE 23:48:03 10° E night (unlit)
03 Oct - 01:18:40 10° WNW 01:21:53 54° SW 01:25:05 10° SE night (unlit)
03 Oct - 17:58:39 10° SSW 18:01:41 37° SE 18:04:43 10° ENE daylight
03 Oct - 19:35:16 10° W 19:38:12 31° NNW 19:41:10 10° NE visible
03 Oct - 21:13:29 10° NW 21:15:27 15° N 21:17:25 10° NNE visible
03 Oct - 22:50:22 10° NNW 22:52:52 19° NNE 22:55:20 10° ENE night (unlit)
04 Oct - 00:26:28 10° NW 00:29:45 79° NE 00:33:02 10° ESE night (unlit)
04 Oct - 02:04:28 10° WSW 02:05:48 12° SW 02:07:08 10° SSW night (unlit)
04 Oct - 17:07:13 10° S 17:09:40 20° SE 17:12:08 10° E daylight
04 Oct - 18:42:46 10° WSW 18:45:56 48° NNW 18:49:06 10° NE daylight
04 Oct - 20:20:47 10° NW 20:23:00 17° N 20:25:12 10° NNE visible
04 Oct - 21:58:16 10° NNW 22:00:25 16° N 22:02:36 10° NE visible
04 Oct - 23:34:22 10° NW 23:37:31 44° NNE 23:40:41 10° ESE night (unlit)
05 Oct - 01:11:13 10° W 01:13:51 22° SW 01:16:28 10° S night (unlit)
05 Oct - 16:17:02 10° SE 16:17:42 10° SE 16:18:23 10° ESE daylight
05 Oct - 17:50:28 10° SW 17:53:42 87° NW 17:56:58 10° NE daylight
05 Oct - 19:28:03 10° WNW 19:30:33 20° NNW 19:33:05 10° NE visible
05 Oct - 21:06:00 10° NNW 21:07:57 15° N 21:09:54 10° NE visible
05 Oct - 22:42:18 10° NW 22:45:14 29° NNE 22:48:08 10° E night (unlit)
06 Oct - 00:18:40 10° WNW 00:21:47 42° SW 00:24:54 10° SSE night (unlit)
06 Oct - 16:58:25 10° SW 17:01:34 48° SE 17:04:43 10° ENE daylight
06 Oct - 18:35:20 10° W 18:38:10 27° NNW 18:41:01 10° NE daylight
06 Oct - 20:13:32 10° NW 20:15:27 15° N 20:17:23 10° NNE visible
06 Oct - 21:50:15 10° NW 21:52:51 21° NNE 21:55:26 10° ENE visible
06 Oct - 23:26:22 10° WNW 23:29:39 83° SSW 23:32:55 10° SE night (unlit)
07 Oct - 16:06:46 10° SSW 16:09:28 25° SE 16:12:12 10° ENE daylight
07 Oct - 17:42:43 10° W 17:45:49 40° NNW 17:48:56 10° NE daylight
07 Oct - 19:20:52 10° NW 19:22:58 16° N 19:25:03 10° NNE visible
07 Oct - 20:58:08 10° NNW 21:00:23 17° NNE 21:02:39 10° NE visible
07 Oct - 22:34:12 10° NW 22:37:25 54° NNE 22:40:38 10° ESE night (unlit)
08 Oct - 00:11:19 10° W 00:13:37 18° SW 00:15:55 10° S night (unlit)
08 Oct - 15:15:48 10° SSE 15:17:27 13° SE 15:19:07 10° E daylight
08 Oct - 16:50:18 10° WSW 16:53:32 70° NNW 16:56:48 10° NE daylight
08 Oct - 18:28:05 10° WNW 18:30:28 19° NNW 18:32:52 10° NNE daylight
08 Oct - 20:05:53 10° NNW 20:07:53 15° N 20:09:53 10° NE visible
08 Oct - 21:42:05 10° NW 21:45:06 33° NNE 21:48:06 10° E visible
08 Oct - 23:18:35 10° WNW 23:21:34 33° SW 23:24:33 10° SSE night (unlit)
